Location: Drocourt
(49.0571°N, 1.7669°E)
Time: 16:22:36
(UTC+00:00)

Vanguard 3 - Pass Details

Date: 20 April 2024
Orbit: 509 x 3233 km, 33.3° (Epoch: 23 May)

Event Time Altitude Azimuth Distance (km) Brightness Sun altitude
Rises 05:22:22 0° 242° (WSW) 5,993 10.9 4.1°
Reaches altitude 10° 05:27:38 10° 233° (SW) 4,488 10.4 4.9°
Maximum altitude 05:36:28 27° 183° (S) 2,461 9.6 6.3°
Drops below altitude 10° 05:42:16 10° 128° (SE) 2,848 10.7 7.3°
Sets 05:44:48 0° 115° (ESE) 3,506 11.5 7.7°
